Flag Weather past 2 weeks in Albuquerque, New Mexico, U.S.A.

Now
40 °F

Clear.


Feels Like: 35 °F
Forecast: 27 / 56 °F
Wind: 7 mph from Northwest

Location: Albuquerque International Airport

Current Time: Nov 26, 2014 at 2:00:15 AM

Latest Report: Nov 26, 2014 at 12:52 AM


Visibility: 10 mi

Pressure: 30.28 "Hg

Humidity: 27%

Dew point: 8 °F

Location of AlbuquerqueLocation

Historic Weather in Albuquerque — Graph

°F

Albuquerque temperature yesterday

Maximum temperature yesterday: 49 °F (at 3:52 PM)
Minimum temperature yesterday: 18 °F (at 6:52 AM)
Average temperature yesterday: 35 °F

Past Weeks' High & Low Weather Summary

 TemperatureHumidityPressure
High70 °F (Nov 11, 2:52 PM)79% (Nov 16, 8:52 AM)30.51 "Hg (Nov 16, 8:52 AM)
Low18 °F (Nov 25, 6:52 AM)11% (Nov 20, 3:52 PM)29.66 "Hg (Nov 23, 3:52 AM)
Average41 °F39%30.08 "Hg
* Reported Nov 11 12:52 AM — Nov 26 12:52 AM, Albuquerque, Weather by CustomWeather, © 2014

Note: Actual official high and low records may vary slightly from our data, if they occured in-between our weather recording intervals... More about our weather records

Advertising

Albuquerque weather history for previous 24 hours

 ConditionsComfort  
Time TempWeatherWind HumidityBarometerVisibility
12:52 AM
Nov 26
40 °FClear.7 mph27%30.28 "Hg10 mi
11:52 PM
Nov 25
40 °FPassing clouds.9 mph27%30.28 "Hg10 mi
10:52 PM38 °FPassing clouds.5 mph27%30.32 "Hg10 mi
9:52 PM38 °FPassing clouds.8 mph26%30.30 "Hg10 mi
8:52 PM41 °FPassing clouds.9 mph23%30.30 "Hg10 mi
7:52 PM44 °FPassing clouds.9 mph20%30.30 "Hg10 mi
6:52 PM43 °FPassing clouds.7 mph19%30.31 "Hg10 mi
5:52 PM46 °FPassing clouds.12 mph16%30.29 "Hg10 mi
4:52 PM47 °FPassing clouds.7 mph16%30.28 "Hg10 mi
3:52 PM49 °FPassing clouds.9 mph16%30.26 "Hg10 mi
2:52 PM48 °FPassing clouds.10 mph15%30.27 "Hg10 mi
1:52 PM47 °FPassing clouds.9 mph16%30.30 "Hg10 mi
12:52 PM43 °FPassing clouds.3 mph24%30.32 "Hg10 mi
11:52 AM39 °FPassing clouds.3 mph30%30.37 "Hg10 mi
10:52 AM34 °FPassing clouds.3 mph37%30.43 "Hg10 mi
9:52 AM33 °FPassing clouds.6 mph41%30.47 "Hg10 mi
8:52 AM30 °FPassing clouds.3 mph47%30.48 "Hg10 mi
7:52 AM23 °FPassing clouds.5 mph63%30.48 "Hg10 mi
6:52 AM18 °FScattered clouds.5 mph71%30.51 "Hg10 mi
5:52 AM20 °FClear.No wind68%30.48 "Hg10 mi
4:52 AM21 °FClear.3 mph68%30.45 "Hg10 mi
3:52 AM26 °FClear.No wind52%30.41 "Hg10 mi
2:52 AM27 °FClear.5 mph55%30.40 "Hg10 mi
Weather by CustomWeather, © 2014

See weather overviewHow to use our weather pages